Location: Ambrosina
(19.9365°S, 43.9833°W)
Time: 23:59:13
(UTC+00:00)

SWIFT - Pass Details

Date: 11 May 2021
Orbit: 544 x 559 km, 20.6° (Epoch: 19 June)

Event Time Altitude Azimuth Distance (km) Brightness Sun altitude
Rises 22:35:39 0° 265° (W) 2,696 6.9 -29.7°
Reaches altitude 10° 22:37:56 10° 265° (W) 1,804 5.8 -30.2°
Enters shadow 22:39:51 26° 264° (W) 1,084 4.3 -30.7°
